This is the latest recevied weather packets stored in our database for station/object LA9TLA-1. If no packets are shown the sender has not sent any weather packets the latest 10 day(s).
| Time | Temp. | Humidity | Pressure | Rain* | Wind** | Luminosity | Snow |
|---|---|---|---|---|---|---|---|
| 1778003865 | 7.78° C | 10% | 1024 hPa | 0 mm | - | - | - |
| 1778002067 | 8.33° C | 10% | 1023.7 hPa | 0 mm | - | - | - |
| 1777996667 | 8.33° C | 10% | 1023.7 hPa | 0 mm | - | - | - |
| 1777994866 | 8.89° C | 10% | 1023.7 hPa | 0 mm | - | - | - |
| 1777991267 | 7.78° C | 54% | 1023.7 hPa | 0 mm | - | - | - |
| 1777987664 | 7.22° C | 52% | 1024 hPa | 0 mm | - | - | - |
| 1777982265 | 7.78° C | 10% | 1023.7 hPa | 0 mm | - | - | - |
| 1777980462 | 7.78° C | 10% | 1023.6 hPa | 0 mm | - | - | - |
| 1777978666 | 8.89° C | 10% | 1023.7 hPa | 0 mm | - | - | - |
| 1777976864 | 7.78° C | 10% | 1023.5 hPa | 0 mm | - | - | - |
| 1777975066 | 6.11° C | 10% | 1023.6 hPa | 0 mm | - | - | - |
| 1777971466 | 6.67° C | 10% | 1023.4 hPa | 0 mm | - | - | - |
| 1777967864 | 7.22° C | 10% | 1023 hPa | 0 mm | - | - | - |
| 1777966065 | 7.78° C | 10% | 1023 hPa | 0 mm | - | - | - |
| 1777962464 | 6.11° C | 35% | 1022.7 hPa | 0 mm | - | - | - |
| 1777960664 | 6.67° C | 81% | 1023 hPa | 0 mm | - | - | - |
| 1777958865 | 4.44° C | 99% | 1023.1 hPa | 0 mm | - | - | - |
| 1777957065 | 3.89° C | 99% | 1023.1 hPa | 0 mm | - | - | - |
| 1777955263 | 2.78° C | 99% | 1022.5 hPa | 0 mm | - | - | - |
| 1777953464 | 2.78° C | 92% | 1022.2 hPa | 0 mm | - | - | - |
| 1777951664 | 3.33° C | 89% | 1022.5 hPa | 0 mm | - | - | - |
| 1777949864 | 2.78° C | 99% | 1022.4 hPa | 0 mm | - | - | - |
| 1777948064 | 2.78° C | 91% | 1022.5 hPa | 0 mm | - | - | - |
| 1777946265 | 3.33° C | 90% | 1022.2 hPa | 0 mm | - | - | - |
| 1777944465 | 3.33° C | 88% | 1022.2 hPa | 0 mm | - | - | - |
* Rain latest hour (hover to see other rain measurements)
** Current wind speed in m/s (hover to see current wind gust speed)